| time (UTC) | temp C | wind direction | speed KPH | gust KPH | rain 1hr cm | rain 24hr cm | rain mn cm | humidity % | barometer mb |
| 20260502180403 | 15 | 294 | 19.3 | 27.4 | 0.00 | 0.00 | 0.00 | 40 | 1019.5 |
| 20260502170403 | 13 | 253 | 20.9 | 25.7 | 0.00 | 0.00 | 0.00 | 43 | 1020.4 |
| 20260502163903 | 12 | 287 | 14.5 | 25.7 | 0.00 | 0.00 | 0.00 | 42 | 1020.4 |
| 20260502163403 | 12 | 258 | 11.3 | 24.1 | 0.00 | 0.00 | 0.00 | 42 | 1020.5 |
| 20260502162903 | 12 | 232 | 14.5 | 25.7 | 0.00 | 0.00 | 0.00 | 43 | 1020.4 |
| 20260502162403 | 12 | 260 | 14.5 | 29.0 | 0.00 | 0.00 | 0.00 | 43 | 1020.5 |
| 20260502161903 | 12 | 243 | 11.3 | 25.7 | 0.00 | 0.00 | 0.00 | 42 | 1020.6 |
| 20260502160903 | 12 | 253 | 14.5 | 22.5 | 0.00 | 0.00 | 0.00 | 44 | 1020.7 |
| 20260502160403 | 12 | 259 | 16.1 | 22.5 | 0.00 | 0.00 | 0.00 | 43 | 1020.8 |
| 20260502151903 | 11 | 252 | 19.3 | 29.0 | 0.00 | 0.00 | 0.00 | 48 | 1021.2 |
| 20260502150403 | 10 | 260 | 17.7 | 25.7 | 0.00 | 0.00 | 0.00 | 49 | 1021.2 |
| 20260502130403 | 5 | 257 | 11.3 | 16.1 | 0.00 | 0.00 | 0.00 | 69 | 1021.6 |
| 20260502123403 | 3 | 273 | 8.0 | 11.3 | 0.00 | 0.00 | 0.00 | 73 | 1021.9 |
| 20260502122904 | 2 | 273 | 8.0 | 11.3 | 0.00 | 0.00 | 0.00 | 75 | 1021.8 |
| 20260502122403 | 2 | 265 | 6.4 | 11.3 | 0.00 | 0.00 | 0.00 | 77 | 1021.9 |
| 20260502121903 | 1 | 262 | 8.0 | 11.3 | 0.00 | 0.00 | 0.00 | 79 | 1021.9 |
| 20260502121404 | 1 | 262 | 8.0 | 11.3 | 0.00 | 0.00 | 0.00 | 80 | 1022.0 |
| 20260502120403 | 0 | 253 | 9.7 | 11.3 | 0.00 | 0.00 | 0.00 | 79 | 1021.9 |
| 20260502115903 | 1 | 253 | 8.0 | 11.3 | 0.00 | 0.00 | 0.00 | 78 | 1021.8 |
| 20260502115404 | 0 | 253 | 9.7 | 12.9 | 0.00 | 0.00 | 0.00 | 78 | 1021.8 |
| 20260502114904 | 0 | 253 | 8.0 | 11.3 | 0.00 | 0.00 | 0.00 | 77 | 1021.8 |
| 20260502114403 | 0 | 253 | 8.0 | 8.0 | 0.00 | 0.00 | 0.00 | 77 | 1021.8 |
| 20260502113904 | 0 | 253 | 8.0 | 11.3 | 0.00 | 0.00 | 0.00 | 77 | 1021.8 |
| 20260502113403 | 0 | 253 | 8.0 | 11.3 | 0.00 | 0.00 | 0.00 | 79 | 1021.7 |
| 20260502112903 | 0 | 253 | 8.0 | 11.3 | 0.00 | 0.00 | 0.00 | 79 | 1021.7 |
| 20260502112403 | 0 | 253 | 8.0 | 12.9 | 0.00 | 0.00 | 0.00 | 79 | 1021.6 |
| 20260502111904 | 0 | 258 | 8.0 | 11.3 | 0.00 | 0.00 | 0.00 | 79 | 1021.7 |
| 20260502111404 | 0 | 248 | 9.7 | 11.3 | 0.00 | 0.00 | 0.00 | 78 | 1021.6 |
| 20260502110903 | 0 | 250 | 9.7 | 11.3 | 0.00 | 0.00 | 0.00 | 79 | 1021.7 |
| 20260502110403 | 0 | 243 | 9.7 | 9.7 | 0.00 | 0.00 | 0.00 | 80 | 1021.6 |
| 20260502105903 | 0 | 243 | 9.7 | 12.9 | 0.00 | 0.00 | 0.00 | 79 | 1021.6 |
| 20260502105404 | 0 | 243 | 9.7 | 12.9 | 0.00 | 0.00 | 0.00 | 78 | 1021.6 |
| 20260502104904 | 0 | 243 | 9.7 | 9.7 | 0.00 | 0.00 | 0.00 | 79 | 1021.6 |
| 20260502104403 | 0 | 243 | 9.7 | 9.7 | 0.00 | 0.00 | 0.00 | 78 | 1021.7 |
| 20260502103903 | 0 | 243 | 9.7 | 9.7 | 0.00 | 0.00 | 0.00 | 79 | 1021.6 |
| 20260502103403 | 0 | 243 | 9.7 | 9.7 | 0.00 | 0.00 | 0.00 | 78 | 1021.7 |
| 20260502102903 | 0 | 243 | 8.0 | 9.7 | 0.00 | 0.00 | 0.00 | 78 | 1021.7 |
| 20260502102404 | 0 | 243 | 8.0 | 9.7 | 0.00 | 0.00 | 0.00 | 77 | 1021.7 |
| 20260502101404 | 1 | 243 | 8.0 | 8.0 | 0.00 | 0.00 | 0.00 | 77 | 1021.6 |
| 20260502100903 | 1 | 243 | 8.0 | 8.0 | 0.00 | 0.00 | 0.00 | 78 | 1021.6 |
| 20260502100403 | 0 | 243 | 6.4 | 8.0 | 0.00 | 0.00 | 0.00 | 78 | 1021.6 |
| 20260502091403 | 0 | 243 | 8.0 | 9.7 | 0.00 | 0.00 | 0.00 | 77 | 1021.5 |
| 20260502090903 | 1 | 243 | 8.0 | 9.7 | 0.00 | 0.00 | 0.00 | 76 | 1021.5 |
| 20260502090403 | 1 | 243 | 8.0 | 9.7 | 0.00 | 0.00 | 0.00 | 76 | 1021.4 |
| 20260502071403 | 2 | 243 | 4.8 | 4.8 | 0.00 | 0.00 | 0.00 | 76 | 1021.5 |
| 20260502070903 | 1 | 243 | 4.8 | 8.0 | 0.00 | 0.00 | 0.00 | 76 | 1021.5 |
| 20260502070403 | 1 | 243 | 8.0 | 9.7 | 0.00 | 0.00 | 0.00 | 75 | 1021.5 |
| 20260502065403 | 2 | 243 | 8.0 | 9.7 | 0.00 | 0.00 | 0.00 | 74 | 1021.6 |
| 20260502064903 | 2 | 243 | 8.0 | 8.0 | 0.00 | 0.00 | 0.00 | 76 | 1021.6 |
| 20260502064404 | 1 | 243 | 8.0 | 9.7 | 0.00 | 0.00 | 0.00 | 74 | 1021.6 |
| 20260502063903 | 2 | 243 | 9.7 | 9.7 | 0.00 | 0.00 | 0.00 | 73 | 1021.6 |
| 20260502063404 | 2 | 342 | 4.8 | 4.8 | 0.00 | 0.00 | 0.00 | 74 | 1021.5 |
| 20260502062403 | 2 | 342 | 4.8 | 4.8 | 0.00 | 0.00 | 0.00 | 73 | 1021.5 |
| 20260502061403 | 2 | 342 | 4.8 | 8.0 | 0.00 | 0.00 | 0.00 | 72 | 1021.4 |
| 20260502060903 | 2 | 342 | 8.0 | 9.7 | 0.00 | 0.00 | 0.00 | 72 | 1021.4 |
| 20260502060403 | 2 | 342 | 8.0 | 8.0 | 0.00 | 0.00 | 0.00 | 71 | 1021.5 |
| 20260502055404 | 3 | 342 | 3.2 | 4.8 | 0.00 | 0.00 | 0.00 | 70 | 1021.5 |
| 20260502054404 | 4 | 342 | 4.8 | 4.8 | 0.00 | 0.00 | 0.00 | 65 | 1021.6 |
| 20260502053903 | 4 | 342 | 4.8 | 4.8 | 0.00 | 0.00 | 0.00 | 66 | 1021.6 |
| 20260502052904 | 3 | 342 | 3.2 | 4.8 | 0.00 | 0.00 | 0.00 | 68 | 1021.6 |
| 20260502052404 | 3 | 342 | 4.8 | 4.8 | 0.00 | 0.00 | 0.00 | 67 | 1021.6 |
| 20260502051403 | 4 | 342 | 4.8 | 4.8 | 0.00 | 0.00 | 0.00 | 67 | 1021.6 |
| 20260502045903 | 3 | 342 | 4.8 | 4.8 | 0.00 | 0.00 | 0.00 | 69 | 1021.5 |
| 20260502045404 | 3 | 342 | 4.8 | 4.8 | 0.00 | 0.00 | 0.00 | 68 | 1021.3 |
| 20260502044904 | 3 | 342 | 4.8 | 4.8 | 0.00 | 0.00 | 0.00 | 68 | 1021.3 |
| 20260502043904 | 3 | 342 | 3.2 | 4.8 | 0.00 | 0.00 | 0.00 | 66 | 1021.2 |
| 20260502043404 | 4 | 342 | 3.2 | 4.8 | 0.00 | 0.00 | 0.00 | 65 | 1021.2 |
| 20260502042904 | 5 | 342 | 3.2 | 4.8 | 0.00 | 0.00 | 0.00 | 63 | 1021.2 |
| 20260502041903 | 5 | 342 | 3.2 | 3.2 | 0.00 | 0.00 | 0.00 | 63 | 1021.3 |
| 20260502041404 | 5 | 342 | 1.6 | 3.2 | 0.00 | 0.00 | 0.00 | 64 | 1021.3 |
| 20260502040903 | 5 | 342 | 1.6 | 3.2 | 0.00 | 0.00 | 0.00 | 64 | 1021.2 |
| 20260502040404 | 5 | 342 | 1.6 | 3.2 | 0.00 | 0.00 | 0.00 | 64 | 1021.2 |
| 20260502035904 | 4 | 342 | 1.6 | 3.2 | 0.00 | 0.00 | 0.00 | 64 | 1021.2 |
| 20260502034403 | 5 | 342 | 4.8 | 4.8 | 0.00 | 0.00 | 0.00 | 64 | 1021.5 |
| 20260502033903 | 4 | 342 | 4.8 | 4.8 | 0.00 | 0.00 | 0.00 | 64 | 1021.5 |
| 20260502033403 | 4 | 342 | 3.2 | 4.8 | 0.00 | 0.00 | 0.00 | 64 | 1021.5 |
| 20260502032904 | 4 | 342 | 3.2 | 4.8 | 0.00 | 0.00 | 0.00 | 64 | 1021.6 |
| 20260502032404 | 5 | 342 | 3.2 | 4.8 | 0.00 | 0.00 | 0.00 | 63 | 1021.5 |
| 20260502031904 | 5 | 342 | 8.0 | 12.9 | 0.00 | 0.00 | 0.00 | 64 | 1021.5 |
| 20260502031404 | 5 | 342 | 3.2 | 4.8 | 0.00 | 0.00 | 0.00 | 63 | 1021.5 |
| 20260502030904 | 5 | 342 | 8.0 | 9.7 | 0.00 | 0.00 | 0.00 | 62 | 1021.4 |
| 20260502030403 | 5 | 342 | 9.7 | 12.9 | 0.00 | 0.00 | 0.00 | 61 | 1021.4 |
| 20260502025903 | 5 | 347 | 9.7 | 12.9 | 0.00 | 0.00 | 0.00 | 61 | 1021.4 |
| 20260502025403 | 5 | 355 | 9.7 | 12.9 | 0.00 | 0.00 | 0.00 | 61 | 1021.2 |
| 20260502024904 | 5 | 355 | 8.0 | 9.7 | 0.00 | 0.00 | 0.00 | 60 | 1021.3 |
| 20260502024404 | 6 | 355 | 9.7 | 9.7 | 0.00 | 0.00 | 0.00 | 59 | 1021.2 |
| 20260502023904 | 6 | 355 | 6.4 | 8.0 | 0.00 | 0.00 | 0.00 | 58 | 1021.2 |
| 20260502023404 | 6 | 355 | 4.8 | 8.0 | 0.00 | 0.00 | 0.00 | 58 | 1021.1 |
| 20260502022904 | 6 | 355 | 4.8 | 8.0 | 0.00 | 0.00 | 0.00 | 57 | 1021.1 |
| 20260502022404 | 6 | 355 | 6.4 | 9.7 | 0.00 | 0.00 | 0.00 | 57 | 1021.0 |
| 20260502021904 | 6 | 341 | 8.0 | 9.7 | 0.00 | 0.00 | 0.00 | 57 | 1021.0 |
| 20260502021404 | 7 | 341 | 9.7 | 12.9 | 0.00 | 0.00 | 0.00 | 56 | 1020.9 |
| 20260502020904 | 7 | 341 | 8.0 | 9.7 | 0.00 | 0.00 | 0.00 | 55 | 1020.8 |
| 20260502020404 | 7 | 350 | 9.7 | 14.5 | 0.00 | 0.00 | 0.00 | 54 | 1020.8 |
| 20260502015403 | 7 | 1 | 8.0 | 12.9 | 0.00 | 0.00 | 0.00 | 54 | 1020.8 |
| 20260502014903 | 7 | 1 | 9.7 | 12.9 | 0.00 | 0.00 | 0.00 | 53 | 1020.8 |
| 20260502014404 | 7 | 355 | 8.0 | 12.9 | 0.00 | 0.00 | 0.00 | 54 | 1020.8 |
| 20260502013904 | 7 | 355 | 8.0 | 12.9 | 0.00 | 0.00 | 0.00 | 53 | 1020.7 |
| 20260502012903 | 8 | 355 | 8.0 | 11.3 | 0.00 | 0.00 | 0.00 | 53 | 1020.6 |
| 20260502012404 | 8 | 352 | 6.4 | 9.7 | 0.00 | 0.00 | 0.00 | 52 | 1020.6 |
| 20260502011904 | 8 | 19 | 4.8 | 12.9 | 0.00 | 0.00 | 0.00 | 52 | 1020.6 |
| 20260502011404 | 8 | 0 | 11.3 | 19.3 | 0.00 | 0.00 | 0.00 | 53 | 1020.6 |
| 20260502010904 | 8 | 340 | 8.0 | 12.9 | 0.00 | 0.00 | 0.00 | 52 | 1020.5 |
| 20260502010404 | 8 | 340 | 9.7 | 14.5 | 0.00 | 0.00 | 0.00 | 51 | 1020.4 |
| 20260502005403 | 9 | 342 | 14.5 | 19.3 | 0.00 | 0.00 | 0.00 | 50 | 1020.3 |
| 20260502004903 | 9 | 336 | 16.1 | 20.9 | 0.00 | 0.00 | 0.00 | 50 | 1020.3 |
| 20260502004404 | 9 | 343 | 17.7 | 22.5 | 0.00 | 0.00 | 0.00 | 49 | 1020.2 |
| 20260502003903 | 9 | 341 | 19.3 | 25.7 | 0.00 | 0.00 | 0.00 | 48 | 1020.2 |
| 20260502003404 | 9 | 342 | 20.9 | 25.7 | 0.00 | 0.00 | 0.00 | 48 | 1020.2 |
| 20260502002903 | 9 | 352 | 17.7 | 22.5 | 0.00 | 0.00 | 0.00 | 46 | 1020.2 |
| 20260502002403 | 10 | 349 | 14.5 | 19.3 | 0.00 | 0.00 | 0.00 | 45 | 1020.2 |
| 20260502001903 | 10 | 357 | 14.5 | 20.9 | 0.00 | 0.00 | 0.00 | 44 | 1020.2 |
| 20260502001403 | 10 | 14 | 16.1 | 22.5 | 0.00 | 0.00 | 0.00 | 44 | 1020.2 |
| 20260502000903 | 10 | 13 | 17.7 | 24.1 | 0.00 | 0.00 | 0.00 | 45 | 1020.1 |
| 20260502000404 | 10 | 349 | 16.1 | 22.5 | 0.00 | 0.00 | 0.00 | 45 | 1020.1 |
| 20260501235904 | 10 | 6 | 12.9 | 25.7 | 0.00 | 0.00 | 0.00 | 45 | 1020.1 |
| 20260501235404 | 10 | 0 | 16.1 | 25.7 | 0.00 | 0.00 | 0.00 | 45 | 1020.1 |
| 20260501234903 | 10 | 21 | 16.1 | 24.1 | 0.00 | 0.00 | 0.00 | 44 | 1020.1 |
| 20260501234404 | 10 | 0 | 17.7 | 25.7 | 0.00 | 0.00 | 0.00 | 44 | 1020.1 |
| 20260501233403 | 10 | 302 | 19.3 | 27.4 | 0.00 | 0.00 | 0.00 | 45 | 1020.0 |
| 20260501232904 | 11 | 1 | 16.1 | 20.9 | 0.00 | 0.00 | 0.00 | 46 | 1020.0 |
| 20260501232403 | 11 | 300 | 17.7 | 24.1 | 0.00 | 0.00 | 0.00 | 45 | 1020.0 |
| 20260501231903 | 10 | 338 | 19.3 | 25.7 | 0.00 | 0.00 | 0.00 | 46 | 1019.9 |
| 20260501231404 | 10 | 295 | 14.5 | 25.7 | 0.00 | 0.00 | 0.00 | 44 | 1019.9 |
| 20260501230904 | 10 | 339 | 17.7 | 24.1 | 0.00 | 0.00 | 0.00 | 45 | 1019.9 |
| 20260501230403 | 10 | 329 | 16.1 | 22.5 | 0.00 | 0.00 | 0.00 | 47 | 1019.8 |
| 20260501225904 | 10 | 334 | 20.9 | 27.4 | 0.00 | 0.00 | 0.00 | 46 | 1019.9 |
| 20260501225403 | 10 | 358 | 19.3 | 29.0 | 0.00 | 0.00 | 0.00 | 46 | 1019.8 |
| 20260501224903 | 10 | 345 | 17.7 | 24.1 | 0.00 | 0.00 | 0.00 | 49 | 1019.9 |
| 20260501224403 | 9 | 18 | 12.9 | 22.5 | 0.00 | 0.00 | 0.00 | 49 | 1019.9 |
| 20260501223903 | 9 | 17 | 12.9 | 20.9 | 0.00 | 0.00 | 0.00 | 49 | 1019.9 |
| 20260501223403 | 9 | 5 | 12.9 | 20.9 | 0.00 | 0.00 | 0.00 | 49 | 1019.9 |
| 20260501222403 | 10 | 17 | 16.1 | 22.5 | 0.00 | 0.00 | 0.00 | 49 | 1019.9 |
| 20260501221903 | 10 | 21 | 12.9 | 19.3 | 0.00 | 0.00 | 0.00 | 48 | 1019.9 |
| 20260501221404 | 10 | 5 | 11.3 | 25.7 | 0.00 | 0.00 | 0.00 | 48 | 1020.0 |
| 20260501220903 | 10 | 344 | 12.9 | 19.3 | 0.00 | 0.00 | 0.00 | 49 | 1019.9 |
| 20260501220404 | 9 | 345 | 20.9 | 25.7 | 0.00 | 0.00 | 0.00 | 49 | 1019.9 |
| 20260501215903 | 10 | 354 | 20.9 | 29.0 | 0.00 | 0.00 | 0.00 | 49 | 1019.9 |
| 20260501214904 | 10 | 14 | 14.5 | 25.7 | 0.00 | 0.00 | 0.00 | 49 | 1019.7 |
| 20260501214403 | 10 | 15 | 14.5 | 22.5 | 0.00 | 0.00 | 0.00 | 50 | 1019.8 |
| 20260501213404 | 10 | 356 | 16.1 | 25.7 | 0.00 | 0.00 | 0.00 | 49 | 1019.8 |
| 20260501212403 | 10 | 353 | 17.7 | 24.1 | 0.00 | 0.00 | 0.00 | 48 | 1019.9 |
| 20260501211903 | 10 | 345 | 19.3 | 29.0 | 0.00 | 0.00 | 0.00 | 50 | 1019.8 |
| 20260501211404 | 10 | 343 | 19.3 | 27.4 | 0.00 | 0.00 | 0.00 | 49 | 1019.9 |
| 20260501210904 | 10 | 83 | 4.8 | 19.3 | 0.00 | 0.00 | 0.00 | 50 | 1019.8 |
| 20260501210403 | 9 | 37 | 11.3 | 24.1 | 0.00 | 0.00 | 0.00 | 50 | 1019.9 |
| 20260501205904 | 10 | 22 | 14.5 | 20.9 | 0.00 | 0.00 | 0.00 | 50 | 1019.9 |
| 20260501205403 | 10 | 8 | 16.1 | 27.4 | 0.00 | 0.00 | 0.00 | 47 | 1020.0 |
| 20260501204904 | 10 | 14 | 14.5 | 24.1 | 0.00 | 0.00 | 0.00 | 50 | 1019.9 |
| 20260501204403 | 10 | 346 | 16.1 | 25.7 | 0.00 | 0.00 | 0.00 | 51 | 1020.0 |
| 20260501203904 | 10 | 346 | 14.5 | 20.9 | 0.00 | 0.00 | 0.00 | 49 | 1020.0 |
| 20260501203403 | 10 | 358 | 14.5 | 20.9 | 0.00 | 0.00 | 0.00 | 50 | 1020.0 |
| 20260501202904 | 10 | 327 | 9.7 | 19.3 | 0.00 | 0.00 | 0.00 | 49 | 1020.1 |
| 20260501201904 | 9 | 0 | 11.3 | 19.3 | 0.00 | 0.00 | 0.00 | 49 | 1020.2 |
| 20260501201403 | 10 | 353 | 16.1 | 24.1 | 0.00 | 0.00 | 0.00 | 51 | 1020.3 |
| 20260501195903 | 10 | 354 | 14.5 | 25.7 | 0.00 | 0.00 | 0.00 | 50 | 1020.2 |
| 20260501195404 | 10 | 13 | 19.3 | 27.4 | 0.00 | 0.00 | 0.00 | 49 | 1020.3 |
| 20260501194904 | 10 | 313 | 14.5 | 19.3 | 0.00 | 0.00 | 0.00 | 50 | 1020.2 |
| 20260501194403 | 10 | 2 | 16.1 | 25.7 | 0.00 | 0.00 | 0.00 | 49 | 1020.2 |
| 20260501193903 | 10 | 324 | 20.9 | 27.4 | 0.00 | 0.00 | 0.00 | 55 | 1020.2 |
| 20260501193404 | 9 | 354 | 20.9 | 29.0 | 0.00 | 0.00 | 0.00 | 52 | 1020.1 |
| 20260501192903 | 9 | 325 | 11.3 | 32.2 | 0.00 | 0.00 | 0.00 | 50 | 1020.1 |
| 20260501192403 | 10 | 323 | 20.9 | 27.4 | 0.00 | 0.00 | 0.00 | 51 | 1020.3 |
| 20260501191903 | 10 | 316 | 22.5 | 32.2 | 0.00 | 0.00 | 0.00 | 51 | 1020.3 |
| 20260501191404 | 10 | 11 | 4.8 | 29.0 | 0.00 | 0.00 | 0.00 | 54 | 1020.2 |
| 20260501190903 | 10 | 339 | 19.3 | 32.2 | 0.00 | 0.00 | 0.00 | 54 | 1020.2 |
| 20260501190404 | 10 | 327 | 20.9 | 32.2 | 0.00 | 0.00 | 0.00 | 53 | 1020.1 |
| 20260501185903 | 10 | 312 | 17.7 | 33.8 | 0.00 | 0.00 | 0.00 | 53 | 1020.2 |
| 20260501185403 | 10 | 325 | 17.7 | 32.2 | 0.00 | 0.00 | 0.00 | 51 | 1020.2 |
| 20260501184903 | 9 | 312 | 19.3 | 25.7 | 0.00 | 0.00 | 0.00 | 54 | 1020.1 |
| 20260501184404 | 9 | 354 | 12.9 | 22.5 | 0.00 | 0.00 | 0.00 | 54 | 1020.1 |
| 20260501183403 | 9 | 327 | 16.1 | 32.2 | 0.00 | 0.00 | 0.00 | 53 | 1020.1 |
| 20260501182403 | 8 | 334 | 20.9 | 25.7 | 0.00 | 0.00 | 0.00 | 55 | 1020.1 |
| 20260501181903 | 8 | 342 | 16.1 | 25.7 | 0.00 | 0.00 | 0.00 | 56 | 1020.1 |
| 20260501181404 | 8 | 335 | 14.5 | 20.9 | 0.00 | 0.00 | 0.00 | 58 | 1020.1 |
| 20260501180904 | 7 | 335 | 17.7 | 25.7 | 0.00 | 0.00 | 0.00 | 58 | 1020.2 |